When you browse on this site, cookies collect data to enhance your experience and personalize the content and advertising you see.
Visit our Privacy Policy to learn more. By continuing to use the site, you agree to this use of cookies and data.
  • In Romania
  • List of Countries
  • For 7 days
  • Water Temperature
  • Satellite Maps
  • Weather Map
  • Weather Widgets
  • user-avatar
    Login

    Hourly Weather Port-au-Princ

    Today, 20 June, Thursday

    Time Temperature Precipitation Wind Pressure Humidity
    00:00 +26°C° 0 mm 2 mps 737 mmHg 83%
    01:00 +26°C° 0 mm 1 mps 737 mmHg 83%
    02:00 +26°C° 0 mm 1 mps 737 mmHg 83%
    03:00 +26°C° 0 mm 1 mps 737 mmHg 83%
    04:00 +25°C° 0 mm 1 mps 737 mmHg 82%
    05:00 +26°C° 0 mm 2 mps 737 mmHg 80%
    06:00 +27°C° 0 mm 2 mps 737 mmHg 79%
    07:00 +28°C° 0 mm 2 mps 737 mmHg 77%
    08:00 +29°C° 0 mm 3 mps 737 mmHg 71%
    09:00 +31°C° 0 mm 3 mps 737 mmHg 65%
    10:00 +33°C° 0 mm 4 mps 738 mmHg 59%
    11:00 +33°C° 0 mm 4 mps 737 mmHg 58%
    12:00 +34°C° 0 mm 4 mps 737 mmHg 58%
    13:00 +34°C° 0 mm 5 mps 737 mmHg 57%
    14:00 +34°C° 0.4 mm 4 mps 737 mmHg 60%
    15:00 +33°C° 0.4 mm 4 mps 737 mmHg 63%
    16:00 +31°C° 0.4 mm 3 mps 737 mmHg 66%
    17:00 +30°C° 0.3 mm 3 mps 737 mmHg 70%
    18:00 +29°C° 0.3 mm 3 mps 737 mmHg 73%
    19:00 +28°C° 0.3 mm 2 mps 737 mmHg 76%
    20:00 +27°C° 0 mm 2 mps 738 mmHg 76%
    21:00 +27°C° 0 mm 2 mps 738 mmHg 77%
    22:00 +27°C° 0 mm 2 mps 738 mmHg 77%
    23:00 +26°C° 0 mm 2 mps 738 mmHg 77%

    Tomorrow, 21 June, Friday

    Time Temperature Precipitation Wind Pressure Humidity
    00:00 +26°C° 0 mm 2 mps 738 mmHg 77%
    01:00 +26°C° 0 mm 2 mps 737 mmHg 77%
    02:00 +26°C° 0 mm 2 mps 737 mmHg 79%
    03:00 +26°C° 0 mm 2 mps 737 mmHg 80%
    04:00 +25°C° 0 mm 3 mps 737 mmHg 81%
    05:00 +26°C° 0 mm 3 mps 737 mmHg 80%
    06:00 +27°C° 0 mm 3 mps 738 mmHg 78%
    07:00 +28°C° 0 mm 3 mps 738 mmHg 77%
    08:00 +29°C° 0 mm 3 mps 738 mmHg 70%
    09:00 +31°C° 0 mm 3 mps 739 mmHg 63%
    10:00 +33°C° 0 mm 3 mps 739 mmHg 57%
    11:00 +34°C° 0 mm 3 mps 739 mmHg 54%
    12:00 +35°C° 0 mm 3 mps 739 mmHg 52%
    13:00 +35°C° 0 mm 3 mps 738 mmHg 49%
    14:00 +35°C° 0.1 mm 3 mps 738 mmHg 49%
    15:00 +35°C° 0.1 mm 2 mps 738 mmHg 49%
    16:00 +34°C° 0.1 mm 2 mps 738 mmHg 49%
    17:00 +32°C° 0 mm 2 mps 738 mmHg 55%
    18:00 +30°C° 0 mm 2 mps 738 mmHg 61%
    19:00 +28°C° 0 mm 1 mps 739 mmHg 67%
    20:00 +28°C° 0 mm 2 mps 739 mmHg 69%
    21:00 +27°C° 0 mm 2 mps 739 mmHg 71%
    22:00 +26°C° 0 mm 2 mps 740 mmHg 74%
    23:00 +26°C° 0 mm 2 mps 739 mmHg 74%

    Day after tomorrow, 22 June, Saturday

    Time Temperature Precipitation Wind Pressure Humidity
    00:00 +26°C° 0 mm 2 mps 739 mmHg 74%
    01:00 +26°C° 0 mm 2 mps 739 mmHg 74%
    02:00 +25°C° 0 mm 2 mps 738 mmHg 73%
    03:00 +25°C° 0 mm 2 mps 738 mmHg 72%
    04:00 +25°C° 0 mm 2 mps 738 mmHg 71%
    05:00 +26°C° 0 mm 2 mps 739 mmHg 70%
    06:00 +27°C° 0 mm 2 mps 739 mmHg 69%
    07:00 +28°C° 0 mm 2 mps 739 mmHg 68%
    08:00 +29°C° 0 mm 2 mps 739 mmHg 62%
    09:00 +31°C° 0 mm 3 mps 739 mmHg 57%
    10:00 +33°C° 0 mm 3 mps 739 mmHg 52%
    11:00 +34°C° 0.1 mm 3 mps 739 mmHg 50%
    12:00 +35°C° 0.1 mm 3 mps 739 mmHg 48%
    13:00 +36°C° 0.1 mm 3 mps 739 mmHg 46%
    14:00 +35°C° 0.1 mm 3 mps 738 mmHg 48%
    15:00 +35°C° 0.1 mm 3 mps 738 mmHg 49%
    16:00 +34°C° 0.1 mm 3 mps 738 mmHg 51%
    17:00 +32°C° 0.2 mm 2 mps 738 mmHg 59%
    18:00 +30°C° 0.2 mm 1 mps 738 mmHg 67%
    19:00 +26°C° 0.2 mm 0 mps 738 mmHg 75%
    20:00 +28°C° 0 mm 1 mps 739 mmHg 76%
    21:00 +27°C° 0 mm 1 mps 739 mmHg 77%
    22:00 +26°C° 0 mm 2 mps 739 mmHg 78%
    23:00 +26°C° 0 mm 2 mps 739 mmHg 79%

    23 June, Sunday

    Time Temperature Precipitation Wind Pressure Humidity
    00:00 +26°C° 0 mm 2 mps 738 mmHg 80%
    01:00 +26°C° 0 mm 2 mps 738 mmHg 81%
    02:00 +25°C° 0 mm 2 mps 738 mmHg 81%
    03:00 +25°C° 0 mm 2 mps 737 mmHg 82%
    04:00 +25°C° 0 mm 2 mps 737 mmHg 82%
    05:00 +26°C° 0 mm 2 mps 737 mmHg 79%
    06:00 +27°C° 0 mm 2 mps 737 mmHg 75%
    07:00 +28°C° 0 mm 1 mps 738 mmHg 71%
    08:00 +29°C° 0 mm 2 mps 738 mmHg 65%
    09:00 +30°C° 0 mm 2 mps 738 mmHg 58%
    10:00 +32°C° 0 mm 2 mps 739 mmHg 51%
    11:00 +32°C° 0 mm 2 mps 738 mmHg 49%
    12:00 +34°C° 0 mm 2 mps 738 mmHg 46%
    13:00 +35°C° 0 mm 3 mps 737 mmHg 44%
    14:00 +34°C° 0 mm 2 mps 737 mmHg 47%
    15:00 +34°C° 0 mm 2 mps 736 mmHg 51%
    16:00 +32°C° 0 mm 2 mps 736 mmHg 55%
    17:00 +30°C° 0.1 mm 2 mps 736 mmHg 64%
    18:00 +29°C° 0.1 mm 1 mps 736 mmHg 73%
    19:00 +27°C° 0.1 mm 1 mps 737 mmHg 82%
    20:00 +27°C° 0.1 mm 1 mps 737 mmHg 82%
    21:00 +26°C° 0.1 mm 1 mps 737 mmHg 82%
    22:00 +26°C° 0.1 mm 2 mps 738 mmHg 82%
    23:00 +26°C° 0 mm 1 mps 737 mmHg 83%

    24 June, Monday

    Time Temperature Precipitation Wind Pressure Humidity
    00:00 +25°C° 0 mm 1 mps 737 mmHg 84%
    01:00 +25°C° 0 mm 1 mps 736 mmHg 85%
    02:00 +25°C° 0 mm 1 mps 736 mmHg 85%
    03:00 +25°C° 0 mm 1 mps 736 mmHg 84%
    04:00 +24°C° 0 mm 1 mps 736 mmHg 84%
    05:00 +25°C° 0 mm 1 mps 736 mmHg 80%
    06:00 +26°C° 0 mm 1 mps 736 mmHg 77%
    07:00 +27°C° 0 mm 2 mps 736 mmHg 74%
    08:00 +28°C° 0 mm 2 mps 736 mmHg 67%
    09:00 +30°C° 0 mm 2 mps 737 mmHg 60%
    10:00 +31°C° 0 mm 2 mps 737 mmHg 54%
    11:00 +32°C° 0 mm 2 mps 737 mmHg 52%
    12:00 +34°C° 0 mm 2 mps 737 mmHg 49%
    13:00 +34°C° 0 mm 2 mps 736 mmHg 47%
    14:00 +34°C° 0.1 mm 2 mps 736 mmHg 51%
    15:00 +32°C° 0.1 mm 2 mps 736 mmHg 55%
    16:00 +31°C° 0.1 mm 2 mps 736 mmHg 59%
    17:00 +30°C° 0.4 mm 1 mps 736 mmHg 65%
    18:00 +29°C° 0.4 mm 1 mps 736 mmHg 72%
    19:00 +28°C° 0.4 mm 1 mps 736 mmHg 78%
    20:00 +28°C° 0.1 mm 1 mps 736 mmHg 78%
    21:00 +27°C° 0.1 mm 1 mps 737 mmHg 79%
    22:00 +27°C° 0.1 mm 1 mps 737 mmHg 79%
    23:00 +27°C° 0 mm 1 mps 737 mmHg 80%

    25 June, Tuesday

    Time Temperature Precipitation Wind Pressure Humidity
    00:00 +27°C° 0 mm 1 mps 736 mmHg 80%
    01:00 +26°C° 0 mm 2 mps 736 mmHg 81%
    02:00 +26°C° 0 mm 2 mps 736 mmHg 81%
    03:00 +26°C° 0 mm 2 mps 736 mmHg 82%
    04:00 +26°C° 0 mm 2 mps 736 mmHg 82%
    05:00 +26°C° 0 mm 2 mps 736 mmHg 80%
    06:00 +27°C° 0 mm 2 mps 736 mmHg 77%
    07:00 +28°C° 0 mm 1 mps 736 mmHg 75%
    08:00 +29°C° 0 mm 1 mps 737 mmHg 70%
    09:00 +30°C° 0 mm 2 mps 737 mmHg 65%
    10:00 +32°C° 0 mm 2 mps 737 mmHg 60%
    11:00 +32°C° 0.8 mm 2 mps 737 mmHg 60%
    12:00 +32°C° 0.8 mm 2 mps 737 mmHg 59%
    13:00 +32°C° 0.8 mm 1 mps 737 mmHg 59%
    14:00 +32°C° 1.8 mm 2 mps 736 mmHg 64%
    15:00 +31°C° 1.8 mm 2 mps 736 mmHg 68%
    16:00 +30°C° 1.8 mm 2 mps 736 mmHg 72%
    17:00 +29°C° 3.2 mm 2 mps 736 mmHg 77%
    18:00 +28°C° 3.2 mm 2 mps 736 mmHg 83%
    19:00 +26°C° 3.2 mm 2 mps 736 mmHg 88%
    20:00 +26°C° 0.5 mm 2 mps 737 mmHg 87%
    21:00 +26°C° 0.5 mm 2 mps 737 mmHg 87%
    22:00 +26°C° 0.5 mm 2 mps 738 mmHg 86%
    23:00 +26°C° 0 mm 2 mps 737 mmHg 87%
    Show more